NOAA 20 (43013 NORAD) Tracking and Keplerian Element Data

This shows tracking and keplerian element data for the satellite.

Feedback or suggestion? Click here.




ElementValue
Catalog43013
NameNOAA 20
Epoch Orbit5110
Epoch Day317.57534726
Epoch Year2018
RAAN253.7619
Inclination98.7386
Eccentricity0.0001164
Argument of Perigee104.3131
Mean Anonmoly255.8174
Mean Motion14.19551693
Decay Rate2.2E-07
L11 43013U 17073A 18317.57534726 .00000022 00000-0 31187-4 0 9996
L22 43013 98.7386 253.7619 0001164 104.3131 255.8174 14.19551693 51105

Live tracking and technical data element details for NOAA 20 (NORAD 43013). NOAA 20 can be tracked NOW for your location showing map with azimuth and elevation plus other details from your city location.

Track the satellite on the map from your city or location and see movement details for azimuth, elevation, latitude, longitude, range, height, and movement on the map or in text.







IsCatalogInMostPopularTable: catalog: 43013, numindb: 180
Update: records affected: 1



GetName: 43013 NOAA 20

Hit Count: updated at: Wed, 14 Nov 2018 10:49:27 GMT